Location: La Tine
(46.4708°N, 7.0525°E)
Time: 01:04:53
(UTC+00:00)

Meteor 1-24 Rocket - Pass Details

Date: 25 January 2021
Orbit: 791 x 926 km, 81.3° (Epoch: 03 March)

Event Time Altitude Azimuth Distance (km) Brightness Sun altitude
Rises 18:37:36 0° 252° (WSW) 3,292 8.1 -22.6°
Reaches altitude 10° 18:42:17 10° 290° (WNW) 2,362 6.9 -23.4°
Maximum altitude 18:43:28 11° 303° (WNW) 2,316 6.7 -23.6°
Drops below altitude 10° 18:44:40 10° 317° (NW) 2,366 6.5 -23.8°
Sets 18:49:24 0° 355° (N) 3,314 6.8 -24.6°
